Weather in Popovo-Lezhachi

Russia / Kursk Oblast     51°17′20″N   34°18′39″E
temp.,
°C
wind,
m/s
gust,
m/s
humid.,
%
clouds,
%
prec.,
mm/h
press.,
hPa
HPBL,
m
27 july, tue
tue2700:00+21ese355326 0.0 102172
03:00+19se3454100 0.0 102162
06:00+19ese345849 0.0 102162
09:00+25sse35485 0.0 1021443
12:00+29s45361 0.0 10201559
15:00+30sse33315 0.0 10192567
18:00+29s233731 0.0 10181187
21:00+25ese113778 0.0 101711
28 july, wed
wed2800:00+23se344340 0.0 101870
03:00+21sse41142100 0.0 1017204
06:00+20s3655100 0.1 1016129
09:00+22ssw41057100 0.2 1016344
12:00+22sse1266100 0.3 1015165
15:00+25ese23625 1.3 1013349
18:00+27ne146075 1.6 1011808
21:00+21e34835 1.9 101289
29 july, thu
thu2900:00+19ssw338959 0.1 101234
03:00+20sw3487100 0.1 101170
06:00+19w228625 0.0 101134
09:00+25w12645 0.0 1011351
12:00+29w23445 0.0 10111613
15:00+31w3537100 0.1 10092543
18:00+26w226232 0.0 100847
21:00+20wsw3387100 0.6 100954
30 july, fri
fri3000:00+20ne2298100 5.2 100952
03:00+19wnw2498100 5.2 101092
06:00+18nw24951 0.0 101097
09:00+22nnw23805 0.0 1011474
12:00+26nw34590 0.0 10111147
15:00+29wnw344617 0.0 10092040
18:00+28wnw46475 0.0 1009811
21:00+22n226350 0.0 100915
31 july, sat
sat3100:00+22s11572 0.0 101011
03:00+20ssw22654 0.0 100912
06:00+19ssw127164 0.0 100911
09:00+25ssw355495 0.0 1010401
12:00+28sw46465 0.0 1009986
15:00+31sw574076 0.0 10092500
18:00+28wnw474987 0.0 1009681
21:00+25ene01585 0.0 100911